Weather Roundup
Issued by NWS Chicago, IL

Home | Current Version | Previous Version | Text Only | Print | Product List | Glossary On
Versions: 1 2 3 4 5 6 7 8 9 10 11 12 13 14 15 16 17 18 19 20 21 22 23 24 25 26 27 28 29 30 31 32 33 34 35 36 37 38 39 40 41 42 43 44 45 46 47 48 49 50
000
NZUS59 KLOT 030825
HRRLOT

CHICAGO AREA WEATHER ROUNDUP
NATIONAL WEATHER SERVICE CHICAGO/ROMEOVILLE IL
300 AM CDT FRI JUL 03 2015

NOTE: "FAIR" INDICATES FEW OR NO CLOUDS BELOW 12,000 FEET WITH NO
SIGNIFICANT WEATHER AND/OR OBSTRUCTIONS TO VISIBILITY.

* THESE STATIONS ARE NOT UNDER NWS QUALITY CONTROL. THEY ALSO MAY NOT
  REPORT WEATHER SUCH AS PRECIPITATION OR FOG.

ILZ005-006-012>014-019>023-030900-
NORTHEAST ILLINOIS

CITY           SKY/WX    TMP DP  RH WIND       PRES   REMARKS
OHARE          CLOUDY    56  49  77 N3        29.97F
MIDWAY         CLOUDY    62  52  69 N6        29.96F
AURORA         CLOUDY    56  48  74 NE6       29.97F
LANSING*       MOCLDY    60  56  85 NE3       29.96F
JOLIET*        CLOUDY    60  52  75 NE5       29.97S
WAUKEGAN       PTCLDY    53  49  86 N3        29.97F
DUPAGE AIRPORT MOCLDY    53  49  86 N5        29.96F
WHEELING       PTCLDY    54  48  80 CALM      29.99S
KANKAKEE*      CLOUDY    59  57  93 NE6       29.96S
MORRIS*        CLOUDY    57  52  82 CALM      29.94S
LEWIS AIRPORT* CLOUDY    57  50  77 NE6       29.97S
NORTHERLY IS     N/A     61  56  83 N5          N/A
$$

WIZ051-052-058>065-066-070>072-030900-
SOUTHEAST WISCONSIN

CITY           SKY/WX    TMP DP  RH WIND       PRES   REMARKS
MILWAUKEE      PTCLDY    53  47  79 CALM      29.99F
KENOSHA*       MOCLDY    52  47  83 N3        29.98F
RACINE*        PTCLDY    54  48  80 CALM      30.00F
BURLINGTON     MOCLDY    47  46  97 CALM      29.98F
WAUKESHA       PTCLDY    50  45  81 CALM      30.00F
WEST BEND      PTCLDY    48  45  87 CALM      30.00S
$$

INZ001>003-010>013-019-020-030900-
NORTHWEST INDIANA

CITY           SKY/WX    TMP DP  RH WIND       PRES   REMARKS
GARY*          MOCLDY    62  60  94 CALM      29.97S
MICHIGAN CITY* NOT AVBL
RENSSELAER*    NOT AVBL
VALPARAISO     MOCLDY    57  54  89 E3        29.97S
$$

LMZ740>746-030900-
SOUTHERN LAKE MICHIGAN

STATION/POSITION TIME  SKY/WX   TEMP WIND        PRES    VSBY
                                AIR  DIR/SP/G
                 (UTC)          (F)  (DEG/KT/KT) (MB)    (MI)
HARRISON CRIB    0800            60   70/  4/  5   N/A
BURNHAM HARBOR   0800            61   40/  5/  6   N/A
CALUMET HARBOR   0700            61  360/  4/  5   N/A
BURNS HARBOR     0700            61   70/  9/ 10 1015.6F
MICHIGAN CITY    0800            58   60/  8/  9   N/A
$$

ABBREVIATIONS USED IN REMARKS
   TC - TEMPERATURE IN CELSIUS
  WCI - WIND CHILL INDEX
   HX - HEAT INDEX
  VSB - VISIBILITY
$$


USA.gov is the U.S. government's official web portal to all federal, state and local government web resources and services.